x

South Santa Rosa Is. Ca (46069) Wave Buoy

3:50 - Mon 20th Feb 2017 All times are PST. -8 hours from GMT.

  • Sig Wave height 7.2ft
  • Swell Direction
  • Peak Period 12s
  • Average Period 7s
  • Wind
    11mph, 13mph gusts
  • Sea Temp 56°f
  • Luft Temp 56°f
  • Sea Pressure 1019.2mb
  • South Santa Rosa Is. Ca
  • South Santa Rosa Is. Ca

More Historic Weather Station data

Upgrade to MSW Pro to gain access to the past 30 days of data for over 8000 Wavebouys and Weather Stations around the globe.

Join Pro

Comparision Forecast

View Surf forecast
   
Mo 02/20 3:50 7ft 12s 7s 11 13 mph 1019.2mb 56f 56f
2:50 7ft 11s 6s 11 13 mph 1019.3mb 56f 56f
1:50 8ft 11s 7s 13 18 mph 1019.3mb 56f 56f
12:50 7ft 12s 7s 16 20 mph 1019mb 56f 55f
So 02/19 11:50 7ft 12s 7s 16 20 mph 1019.3mb 56f 54f
10:50 7ft 11s 7s 18 20 mph 1019.1mb 56f 54f
9:50 7ft 11s 7s 18 22 mph 1018.6mb 56f 54f
8:50 7ft 11s 8s 16 18 mph 1018.8mb 56f 54f
7:50 7.5ft 12s 9s 16 20 mph 1017.7mb 56f 54f
6:50 8ft 13s 9s 13 18 mph 1017mb 56f 53f
5:50 8ft 12s 9s 9 11 mph 1016.6mb 56f 54f
4:50 8ft 12s 9s 7 9 mph 1016mb 56f 56f
2:50 8ft 12s 8s 9 11 mph 1015.3mb 56f 56f
1:50 9ft 12s 8s 7 9 mph 1015.3mb 56f 56f
12:50 10.5ft 13s 8s 11 13 mph 1015.6mb 56f 56f
11:50 9.5ft 11s 8s 11 13 mph 1015.4mb 56f 55f
10:50 9ft 12s 7s 16 20 mph 1015.3mb 56f 55f
9:50 11ft 13s 8s 16 20 mph 1014.5mb 56f 55f
8:50 11.5ft 13s 8s 20 27 mph 1013.8mb 55f 55f
7:50 11.5ft 13s 8s 20 25 mph 1012.7mb 55f 54f
6:50 12ft 11s 8s 22 27 mph 1011.6mb 55f 54f
5:50 12ft 12s 8s 22 29 mph 1011mb 55f 54f
4:50 12ft 11s 8s 25 29 mph 1010.2mb 55f 54f
3:50 14ft 12s 8s 27 31 mph 1010mb 56f 54f
2:50 14ft 13s 8s 27 34 mph 1009.4mb 56f 54f
1:50 15.5ft 13s 9s 27 34 mph 1009.5mb 56f 54f
12:50 15.5ft 13s 9s 27 34 mph 1008.8mb 56f 54f
Sa 02/18 11:50 15.5ft 13s 8s 27 34 mph 1008.7mb 56f 54f
10:50 15.5ft 14s 8s 29 36 mph 1008.3mb 56f 54f
9:50 18.5ft 12s 9s 31 43 mph 1007.5mb 56f 54f
8:50 17.5ft 14s 9s 34 38 mph 1006.7mb 56f 54f
7:50 17.5ft 14s 9s 34 40 mph 1005.6mb 56f 54f
6:50 17.5ft 14s 9s 31 40 mph 1004.8mb 56f 55f
5:50 15ft 12s 8s 31 36 mph 1004.7mb 56f 55f
4:50 17ft 14s 9s 29 36 mph 1004.1mb 57f 55f
3:50 17ft 13s 9s 29 34 mph 1003.6mb 57f 55f
2:50 20ft 15s 9s 31 38 mph 1003.7mb 56f 55f
1:50 18.5ft 15s 9s 31 40 mph 1003.3mb 56f 55f
12:50 20.5ft 15s 10s 29 36 mph 1003.2mb 56f 55f
11:50 19.5ft 15s 9s 29 36 mph 1003.1mb 56f 55f
10:50 19.5ft 13s 9s 29 36 mph 1002.8mb 56f 55f
9:50 18ft 12s 9s 31 38 mph 1002.2mb 56f 55f
8:50 15ft 10s 8s 29 38 mph 1001.8mb 56f 53f
7:50 14ft 11s 8s 25 29 mph 1000mb 57f 55f
6:50 12ft 10s 8s 27 34 mph 998.8mb 56f 54f
5:50 11ft 10s 8s 13 18 mph 998.6mb 56f 54f
4:50 11ft 10s 8s 2 7 mph 998.1mb 56f 56f
3:50 11ft 11s 8s 2 4 mph 997.6mb 56f 56f
2:50 12.5ft 10s 9s 4
mph
997.5mb 56f 56f
1:50 12ft 10s 8s 4 7 mph 997mb 56f 56f
12:50 12ft 10s 8s 9 11 mph 996.7mb 56f 57f
Fr 02/17 11:50 11.5ft 9s 8s 7 9 mph 996.5mb 57f 56f
10:50 13ft 10s 8s 9 11 mph 996.5mb 57f 57f
9:50 13ft 10s 8s 9 13 mph 996.4mb 57f 57f
8:50 13ft 10s 8s 11 16 mph 995.6mb 57f 57f
7:50 13ft 10s 8s 9 11 mph 994.8mb 57f 57f
6:50 15ft 9s 8s 13 18 mph 994.1mb 57f 57f
5:50 14ft 10s 8s 13 18 mph 993.5mb 56f 57f
4:50 13ft 8s 8s 13 18 mph 993.4mb 56f 56f
3:50 13ft 9s 7s 18 22 mph 993.1mb 57f 58f
2:50 14ft 8s 8s 22 27 mph 993.1mb 57f 58f
1:50 14ft 8s 7s 22 27 mph 993.5mb 56f 58f
12:50 12.5ft 8s 7s 29 36 mph 994.3mb 56f 58f
11:50 11.5ft 7s 6s 29 36 mph 995.6mb 56f 57f
10:50 10.5ft 6s 7s 34 40 mph 997.3mb 56f 57f
9:50 10.5ft 16s 7s 29 38 mph 998.9mb 56f 56f
8:50 9.5ft 16s 7s 29 36 mph 999.9mb 56f 57f
7:50 10ft 16s 7s 29 34 mph 1000.8mb 56f 57f
6:50 10ft 16s 8s 25 34 mph 1002.1mb 57f 57f
5:50 10ft 16s 9s 25 29 mph 1003.4mb 57f 57f
4:50 10ft 16s 9s 22 29 mph 1004.3mb 57f 57f
3:50 10ft 16s 9s 20 25 mph 1006.2mb 57f 57f
2:50 10ft 17s 11s 20 25 mph 1006.5mb 57f 57f
1:50 9ft 13s 11s 13 18 mph 1007.7mb 57f 56f
12:50 9ft 12s 11s 11 16 mph 1009.4mb 57f 57f
Do 02/16 11:50 9ft 12s 11s 9 11 mph 1009.5mb 57f 57f
10:50 9ft 13s 11s 4
mph
1011.6mb 57f 56f
9:50 9.5ft 17s 11s 2 4 mph 1011.7mb 57f 56f
8:50 11ft 13s 11s 4 7 mph 1012.8mb 57f 57f
7:50 9ft 17s 11s 4 7 mph 1013.3mb 57f 57f
6:50 9ft 17s 12s 7 11 mph 1014.1mb 57f 57f
5:50 9ft 17s 11s 11 13 mph 1014.3mb 57f 57f
4:50 7ft 12s 11s 7 9 mph 1013.7mb 57f 57f
3:50 7.5ft 17s 11s 4 7 mph 1013.6mb 57f 57f
2:50 6.5ft 17s 11s 9 11 mph 1014.8mb 57f 57f
1:50 7.5ft 17s 11s 7 9 mph 1015.3mb 57f 57f